Simultaneous Nadir Overpasses (SNOs) Predictions

Prediction of SNOs between LANDSAT-8 and METOP-A Satellite Orbit:

Table of predicted SNOs for the next 14.0 days since TLE Epoch: 5/14/2016
Index Date (LANDSAT-8) Time (LANDSAT-8) Lat,Lon (LANDSAT-8) SZA (LANDSAT-8 ) Date (METOP-A) Time (METOP-A) Lat,Lon (METOP-A) SZA (METOP-A ) Distance(km) Time Diff (sec)
1 05/14/2016 12:21:24 -81.16,-144.83 115.35 05/14/2016 12:20:57 -81.17,-144.65 115.34 3.26 27
2 05/14/2016 13:10:49 81.19, 23.28 64.71 05/14/2016 13:11:36 81.19, 23.42 64.75 2.26 47
3 05/17/2016 07:55:40 -81.18, -78.09 115.95 05/17/2016 07:55:19 -81.17, -77.94 115.95 2.46 21
4 05/17/2016 08:45:06 81.18, 89.63 64.06 05/17/2016 08:45:59 81.19, 89.74 64.10 1.85 53
5 05/20/2016 03:29:56 -81.17, -11.76 116.57 05/20/2016 03:29:41 -81.17, -11.64 116.56 1.93 15
6 05/20/2016 04:19:21 81.20, 156.31 63.49 05/20/2016 04:20:20 81.19, 156.41 63.53 1.84 59
7 05/22/2016 23:04:13 -81.16, 54.53 117.15 05/22/2016 23:04:04 -81.17, 54.63 117.14 1.91 9
8 05/22/2016 23:53:38 81.18,-137.44 62.90 05/22/2016 23:54:43 81.19,-137.33 62.95 2.01 65
9 05/25/2016 18:38:29 -81.17, 121.13 117.64 05/25/2016 18:38:26 -81.17, 121.25 117.63 2.15 3




NCC Satellite Simultaneous Nadir Overpasses (SNOs) Prediction Service
